Delta Virtual Airport Information Service

Cincinnati Northern Kentucky International Airport

ICAO: KCVG Country: United States
Latitude: 39.0488 Longitude: -84.6678
Latest Arrival : AAY1384 (KPIE-KCVG) Latest Departure : AAY1309 (2) (KCVG-KMSY)


WX CaptureLIVE
Data provided by noaa.gov | Fetched at 10:21:51

METAR : KCVG 151452Z 35008KT 10SM FEW040 23/12 A3004 RMK AO2 SLP163 T02280122 50007

TAF : KCVG 151456Z 1515/1618 34008KT P6SM FEW250 FM151600 34012G18KT P6SM SCT070 FM160200 36004KT P6SM FEW100 FM160800 03005KT P6SM FEW250


Runway Data for KCVG
Data provided by openaviationdata.com

Runway ID Mag Var Hdg Length Elevation Surface ILS Freq ILS Id ILS Slope
9 -4 94° 11984 ft 896 ft Asphalt 111.9 IURN 3
18L -4 184° 10010 ft 896 ft Concrete 110.15 ICIZ 3
18R -4 184° 11010 ft 896 ft Asphalt 111.55 ISIC 3
27 -4 274° 11984 ft 896 ft Asphalt 108.7 IJDP 3
36L -4 11010 ft 896 ft Asphalt 109.9 ICVG 3
36R -4 10010 ft 896 ft Concrete 110.35 IEEI 3

Cincinnati Northern Kentucky International Airport, United States
Use only for reference purposes



Not for navigational purposes.